Miscellaneous Local Product
Issued by NWS North Platte, NE

Home | Current Version | Previous Version | Text Only | Print | Product List | Glossary On
Versions: 1 2 3 4 5 6 7 8 9 10 11 12 13 14 15 16 17 18 19 20 21 22 23 24 25 26 27 28 29 30 31 32 33 34 35 36 37 38 39 40 41 42 43 44 45 46 47 48 49 50
000
AXUS43 KLBF 221810
MISLBF


WESTERN AND NORTH CENTRAL NEBRASKA HOURLY WEATHER ROUNDUP
NATIONAL WEATHER SERVICE NORTH PLATTE NE
1200 PM CST WED FEB 22 2017

NOTE: "FAIR" INDICATES FEW OR NO CLOUDS BELOW 12,000 FEET WITH NO
SIGNIFICANT WEATHER AND/OR OBSTRUCTIONS TO VISIBILITY.

NOTE: STATIONS NOT REPORTING VARIABLES SUCH AS SKY/WEATHER OR
PRESSURE ARE PROVIDED BY RAWS AND APRS NETWORKS AND ARE NOT UNDER
NATIONAL WEATHER SERVICE QUALITY CONTROL.

...OBSERVATIONS IN AND NEAR THE EASTERN PANHANDLE OF NEBRASKA...

CITY           SKY/WX    TMP DP  RH WIND       PRES   REMARKS
PINE RIDGE     SUNNY     53  26  35 W14G26    29.80F
CHADRON        SUNNY     55  20  25 W26G36    29.80F
ALLIANCE       SUNNY     53  22  29 NW22G32   29.81F
SIDNEY         SUNNY     57  16  20 NW25G35   29.82F
CRESCENT LAKE    N/A     55  20  25 NW18G29     N/A
$$

...OBSERVATIONS IN NORTHERN NEBRASKA AND FAR SOUTHERN SOUTH DAKOTA...

CITY           SKY/WX    TMP DP  RH WIND       PRES   REMARKS
WINNER         FAIR      58  37  45 NW20G30   29.74R
VALENTINE      SUNNY     56  31  38 N20G29    29.75R
THEDFORD       SUNNY     60  24  25 NW28G36   29.78S
AINSWORTH      SUNNY     58  33  39 NW17G26   29.75S
O`NEILL        SUNNY     62  35  37 NW21G28   29.71S
ORD            SUNNY     65  22  19 NW23G35   29.72F
BROKEN BOW     SUNNY     64  26  23 NW28G35   29.75S
VALENTINE NWR    N/A     57  28  33 NW17G26     N/A
BUTTE            N/A     58  36  43 NW26G35     N/A
HALSEY           N/A     60  22  23 NW15G25     N/A
CHAMBERS         N/A     62  35  37 N7          N/A
EWING            N/A     62  38  41 NW15G22     N/A
$$

...OBSERVATIONS IN SOUTHWEST NEBRASKA AND FAR NORTHEAST COLORADO...

CITY           SKY/WX    TMP DP  RH WIND       PRES   REMARKS
HOLYOKE        FAIR      61  19  20 NW10      29.84F
IMPERIAL       SUNNY     58  22  24 NW12      29.84S
OGALLALA       SUNNY     61  23  23 NW16G26   29.82S
NORTH PLATTE   SUNNY     62  26  25 NW15      29.80F
MCCOOK         SUNNY     64  28  25 NW16      29.80F
LEXINGTON      SUNNY     64  28  25 NW16G22   29.78R
STAPLETON        N/A     60  28  29 N3          N/A
GOTHENBURG       N/A     60  26  27 W9          N/A
CALLAWAY         N/A     60  28  29 NW17        N/A
$$

...OBSERVATIONS IN CENTRAL LINCOLN COUNTY AREA...

CITY           SKY/WX    TMP DP  RH WIND       PRES   REMARKS
N.P. AIRPORT   SUNNY     62  26  25 NW15      29.80F
N.P. DOWNTOWN    N/A     60  28  29 NW10G18     N/A
N.P. SOUTHEAST   N/A     60  28  29 NW7G16      N/A
N.P. HILLCREST   N/A     59  25  27 NW18G26     N/A
$$

...SOME OBSERVATIONS FROM AROUND THE REGION...

CITY           SKY/WX    TMP DP  RH WIND       PRES   REMARKS
LARAMIE        CLOUDY    32  26  78 SW6       29.89F WCI  26
CHEYENNE       MOSUNNY   44  18  35 NW23G29   29.88F
DENVER         MOSUNNY   50  24  36 E17       29.86F
AKRON          SUNNY     55  17  22 NW16G24   29.87F
SCOTTSBLUFF    PTSUNNY   53  22  29 W17       29.83F
RAPID CITY     SUNNY     55  22  27 NW28G36   29.74F
BISMARCK       LGT SNOW  35  32  88 N13       29.79R FOG     WCI  26
PIERRE         SUNNY     52  38  58 NW16      29.72S
SIOUX FALLS    MOSUNNY   60  43  53 W15       29.62F
OMAHA          SUNNY     67  36  31 NW8       29.65S
GRAND ISLAND   SUNNY     68  37  32 NW16G23   29.73F
KANSAS CITY    CLOUDY    67  38  34 SW14      29.71F
WICHITA        MOSUNNY   68  43  40 SW12      29.76F
OKLAHOMA CITY  MOSUNNY   75  35  23 S16       29.79F
DALLAS         MOSUNNY   77  40  26 S7        29.86F
AMARILLO       SUNNY     78  30  17 W16G23    29.91F
DODGE CITY     SUNNY     71  29  21 N15       29.83S
HAYS             N/A     70  35  27 N12G18    29.77F
GOODLAND       SUNNY     60  23  24 N9        29.85F
$$




USA.gov is the U.S. government's official web portal to all federal, state and local government web resources and services.